[[{"header":{"parameterUnit":"m.s-1","parameterCategory":1,"la1":30.2991,"la2":30.254,"lo1":-89.0895,"lo2":-89.0444,"dy":0.0017,"dx":0.0017,"nx":28,"ny":28,"refTime":"2025-07-22T21:00:00:Z","depth":0,"parameterNumber":2,"parameterNumberName":"U-component_of_WINDS"},"data":[0,0,0,0,0,0,0,0,0,0,0,0,0,0,0,0,0,0,0,0,0,0,0,0,0,0,0,0,0,0,0,0,0,0,0,0,0,0,0,0,0,0,0,0,0,0,0,0,0,0,0,0,0,0,0,0,0,0,2.3985,2.3985,0,2.4012,2.4012,2.4012,2.3994,2.3993,2.3993,2.3992,2.4019,2.402,2.4021,0,0,0,0,0,0,0,0,0,0,0,0,0,2.392,2.3921,2.3985,2.3985,2.3986,2.4012,2.4012,2.4012,2.3994,2.3993,2.3992,2.3992,2.4018,2.402,2.4022,0,0,0,0,0,0,0,0,0,0,0,0,0,2.3947,2.3921,2.3985,2.398,2.398,2.4012,2.4012,2.4012,2.3995,2.3993,2.3992,2.3991,2.4018,2.402,2.4022,2.406,0,0,2.4029,2.403,0,0,0,0,0,0,0,0,2.3946,2.395,2.398,2.398,2.398,2.3998,2.3999,2.4028,2.3995,2.3989,2.3992,2.399,2.4013,2.4015,2.4023,2.4061,2.4062,2.4029,2.403,2.4031,2.4032,0,0,0,0,0,0,0,2.3944,2.3949,2.3996,2.3981,2.3981,2.3977,2.3979,2.4004,2.4007,2.3989,2.3988,2.3992,2.4013,2.4021,2.4023,2.4063,2.4029,2.4031,2.4032,2.4033,2.4136,2.4137,0,0,0,0,0,0,2.3942,2.3947,2.3995,2.3996,2.396,2.3979,2.3982,2.3994,2.4007,2.4008,2.3993,2.3991,2.4018,2.4021,2.4024,2.4071,2.4031,2.4033,2.4034,2.4134,2.4136,2.4137,0,0,0,0,0,0,2.3941,2.3947,2.3994,2.3971,2.3977,2.3981,2.3995,2.3995,2.4003,2.401,2.401,2.4001,2.4017,2.4021,2.4052,2.4072,2.4034,2.4036,2.4133,2.4135,2.4137,2.4164,0,0,0,0,0,0,2.3939,2.3946,2.3961,2.3972,2.3978,2.402,2.3996,2.3996,2.4007,2.4005,2.4017,2.4018,2.4016,2.4049,2.4054,2.4074,2.4038,2.4131,2.4134,2.4136,2.4162,2.4167,2.4172,0,0,0,0,0,2.3937,2.3967,2.3961,2.3967,2.3996,2.4022,2.4025,2.4023,2.4009,2.4024,2.4028,2.4018,2.4069,2.4052,2.4058,2.4079,2.413,2.4133,2.4136,2.4159,2.4166,2.4172,0,0,0,0,0,0,2.3957,2.3968,2.3962,2.3997,2.4008,2.4018,2.4037,2.403,2.4046,2.4043,2.4039,2.4042,2.4074,2.4079,2.406,2.4118,2.4097,2.4101,2.4113,2.4119,2.4124,2.4123,2.404,0,0,0,0,0,2.3966,2.3985,2.3994,2.4023,2.403,2.4032,2.4043,2.4041,2.4053,2.4057,2.4064,2.4076,2.4095,2.4107,2.4125,2.4162,2.4166,2.418,2.4185,2.4189,2.4193,2.4215,2.4222,2.4148,2.4148,2.4148,0,0,2.3983,2.3992,2.4004,2.4028,2.4036,2.4058,2.4037,2.4059,2.4075,2.4061,2.409,2.4096,2.4109,2.4144,2.4159,2.4149,2.4215,2.4193,2.4197,2.4198,2.4219,2.4226,2.4233,2.415,2.415,2.4149,0,0,2.4026,2.4034,2.4061,2.407,2.4084,2.4086,2.4093,2.4104,2.4107,2.4137,2.4128,2.4146,2.4178,2.4189,2.4198,2.4248,2.4239,2.4254,2.428,2.4302,2.4308,2.4313,2.4332,2.4338,2.4257,2.4258,2.4258,0,2.4047,2.4078,2.4075,2.4099,2.411,2.4099,2.4126,2.4136,2.4155,2.4163,2.4151,2.4193,2.4201,2.4239,2.4251,2.4259,2.4267,2.4252,2.4307,2.4312,2.4317,2.4335,2.4342,2.4259,2.4259,2.4259,2.4259,0,2.4102,2.4124,2.4144,2.4163,2.4177,2.4202,2.4204,2.4218,2.4214,2.4218,2.4249,2.4259,2.4279,2.4288,2.4284,2.4326,2.4319,2.4307,2.4287,2.4326,2.4343,2.4349,2.4262,2.4261,2.4261,2.426,0,0,2.4158,2.4177,2.4184,2.4194,2.4209,2.4226,2.4252,2.4272,2.4285,2.4299,2.4321,2.4349,2.4339,2.435,2.4348,2.4366,2.4407,2.4353,2.4353,2.4363,2.4455,2.4464,2.4472,2.4401,2.4402,2.4403,2.4454,0,2.4203,2.4248,2.4247,2.4288,2.4309,2.43,2.4323,2.4335,2.4339,2.4358,2.4362,2.4383,2.4367,2.4374,2.4392,2.4398,2.4425,2.4394,2.4422,2.4423,2.442,2.448,2.449,2.4537,2.446,2.4461,2.4462,0,2.4261,2.4278,2.4322,2.4336,2.4345,2.4365,2.4384,2.4402,2.4416,2.4418,2.4431,2.4427,2.4453,2.4432,2.4469,2.4449,2.446,2.4465,2.4467,2.4469,2.4445,2.4486,2.4552,2.4559,2.4472,2.4471,2.4471,0,2.4299,2.4332,2.4364,2.4372,2.4389,2.4403,2.4411,2.4424,2.4437,2.4454,2.4463,2.4482,2.4493,2.4509,2.451,2.4494,2.4549,2.4527,2.4552,2.4552,2.4564,2.4563,2.4633,2.457,2.457,2.457,2.457,0,2.435,2.4377,2.4381,2.44,2.4431,2.4431,2.4461,2.4468,2.448,2.4501,2.4493,2.4513,2.4513,2.4533,2.4534,2.4566,2.4571,2.4574,2.4574,2.4575,2.4575,2.4583,2.458,2.4572,2.4571,2.4571,2.457,0,2.4397,2.4401,2.4434,2.4448,2.4452,2.4475,2.4486,2.4505,2.4509,2.4536,2.4542,2.4548,2.4572,2.4575,2.4602,2.4603,2.4642,2.4638,2.4637,2.4637,2.4662,2.466,2.474,2.4751,2.468,2.4681,2.4681,0,2.4429,2.4451,2.4467,2.4481,2.449,2.4511,2.4525,2.4525,2.454,2.4559,2.4575,2.4599,2.4617,2.4656,2.4663,2.4684,2.4682,2.4708,2.4685,2.4686,2.4683,2.4683,2.4685,2.4713,2.4714,2.4714,2.4715,0,2.4487,2.4488,2.4508,2.4529,2.4546,2.4562,2.4578,2.4589,2.4592,2.4608,2.4633,2.4648,2.4676,2.47,2.4721,2.473,2.4723,2.4723,2.473,2.4731,2.473,2.4732,2.4651,2.4721,2.472,2.472,2.4719,2.4719,2.4529,2.4548,2.4563,2.4586,2.4598,2.4613,2.4632,2.4639,2.4659,2.4683,2.4682,2.4709,2.4725,2.4753,2.4763,2.4785,2.4776,2.4786,2.4789,2.4791,2.4794,2.4727,2.4788,2.4788,2.4788,2.4788,2.4788,0,2.4587,2.4597,2.4618,2.464,2.4659,2.4651,2.4668,2.4684,2.4709,2.4723,2.4742,2.4772,2.4795,2.4805,2.4828,2.4843,2.4841,2.4849,2.4849,2.4851,2.48,2.4792,2.4851,2.4851,2.4851,2.4851,2.4851,2.4851,2.462,2.4652,2.4656,2.4694,2.4704,2.4731,2.4742,2.4756,2.4768,2.4801,2.482,2.4827,2.484,2.4864,2.4886,2.4888,2.4897,2.4907,2.4908,2.4861,2.4854,2.4848,2.4841,2.4909,2.4909,2.4957,2.4958,2.4958]},{"header":{"parameterUnit":"m.s-1","parameterCategory":1,"la1":30.2991,"la2":30.254,"lo1":-89.0895,"lo2":-89.0444,"dy":0.0017,"dx":0.0017,"nx":28,"ny":28,"refTime":"2025-07-22T21:00:00:Z","depth":0,"parameterNumber":3,"parameterNumberName":"V-component_of_WINDS"},"data":[0,0,0,0,0,0,0,0,0,0,0,0,0,0,0,0,0,0,0,0,0,0,0,0,0,0,0,0,0,0,0,0,0,0,0,0,0,0,0,0,0,0,0,0,0,0,0,0,0,0,0,0,0,0,0,0,0,0,-2.3267,-2.3267,0,-2.3316,-2.3317,-2.3317,-2.3331,-2.333,-2.333,-2.333,-2.338,-2.3382,-2.3383,0,0,0,0,0,0,0,0,0,0,0,0,0,-2.3185,-2.3187,-2.3267,-2.3267,-2.3268,-2.3316,-2.3317,-2.3318,-2.3331,-2.333,-2.333,-2.333,-2.338,-2.3381,-2.3383,0,0,0,0,0,0,0,0,0,0,0,0,0,-2.3226,-2.3187,-2.3267,-2.328,-2.3282,-2.3316,-2.3317,-2.3318,-2.3331,-2.333,-2.333,-2.3329,-2.3379,-2.3381,-2.3384,-2.3408,0,0,-2.3391,-2.3392,0,0,0,0,0,0,0,0,-2.3224,-2.3229,-2.3278,-2.328,-2.3281,-2.3317,-2.3307,-2.3348,-2.3331,-2.3312,-2.333,-2.3329,-2.3359,-2.3363,-2.3374,-2.341,-2.3412,-2.3391,-2.3393,-2.3394,-2.3395,0,0,0,0,0,0,0,-2.3221,-2.3227,-2.3286,-2.3278,-2.3281,-2.3285,-2.329,-2.3315,-2.3338,-2.3314,-2.3315,-2.3321,-2.336,-2.3371,-2.3375,-2.3413,-2.3391,-2.3393,-2.3395,-2.3396,-2.3474,-2.3475,0,0,0,0,0,0,-2.3216,-2.3225,-2.3285,-2.3288,-2.3251,-2.3286,-2.3292,-2.3306,-2.3337,-2.3342,-2.3321,-2.3321,-2.3367,-2.3372,-2.3377,-2.3409,-2.3394,-2.3396,-2.3397,-2.3474,-2.3475,-2.3475,0,0,0,0,0,0,-2.3214,-2.3221,-2.3283,-2.3257,-2.3265,-2.3288,-2.3303,-2.3307,-2.3318,-2.3343,-2.3347,-2.3328,-2.3367,-2.3373,-2.3401,-2.3411,-2.3397,-2.3399,-2.3473,-2.3474,-2.3475,-2.3472,0,0,0,0,0,0,-2.3212,-2.322,-2.3229,-2.3257,-2.3266,-2.3305,-2.3304,-2.3308,-2.3322,-2.3323,-2.335,-2.3355,-2.3367,-2.3397,-2.3403,-2.3414,-2.3401,-2.3472,-2.3474,-2.3475,-2.3471,-2.3473,-2.3474,0,0,0,0,0,-2.3209,-2.3225,-2.3229,-2.3236,-2.3278,-2.3306,-2.3311,-2.3326,-2.3323,-2.3333,-2.3349,-2.3354,-2.3409,-2.34,-2.3406,-2.3418,-2.3472,-2.3473,-2.3475,-2.3471,-2.3472,-2.3474,0,0,0,0,0,0,-2.3197,-2.3229,-2.3234,-2.326,-2.328,-2.3308,-2.332,-2.3327,-2.3348,-2.3347,-2.3364,-2.3371,-2.3397,-2.341,-2.34,-2.3445,-2.344,-2.3443,-2.3435,-2.3437,-2.3438,-2.3435,-2.3403,0,0,0,0,0,-2.3198,-2.3218,-2.3245,-2.3265,-2.3275,-2.3296,-2.3309,-2.3318,-2.334,-2.3348,-2.3367,-2.3387,-2.341,-2.3424,-2.3445,-2.3473,-2.3481,-2.3485,-2.3486,-2.3487,-2.349,-2.3508,-2.3511,-2.348,-2.348,-2.348,0,0,-2.3199,-2.3219,-2.323,-2.3264,-2.328,-2.3302,-2.3303,-2.3324,-2.3341,-2.3352,-2.3379,-2.3393,-2.3418,-2.3446,-2.346,-2.3458,-2.35,-2.3489,-2.349,-2.3492,-2.351,-2.3513,-2.3516,-2.3481,-2.3481,-2.3481,0,0,-2.3212,-2.3229,-2.3249,-2.3266,-2.3292,-2.3306,-2.3311,-2.3339,-2.3349,-2.3377,-2.3386,-2.3406,-2.3443,-2.3462,-2.3476,-2.3499,-2.3505,-2.3506,-2.3513,-2.3531,-2.3533,-2.3535,-2.3546,-2.3549,-2.3508,-2.3508,-2.3508,0,-2.3211,-2.3243,-2.3258,-2.3281,-2.3296,-2.3308,-2.3329,-2.3345,-2.3377,-2.3387,-2.3385,-2.3435,-2.3452,-2.3486,-2.3492,-2.3502,-2.351,-2.3503,-2.3531,-2.3534,-2.3536,-2.3547,-2.355,-2.3508,-2.3508,-2.3508,-2.3508,0,-2.324,-2.3263,-2.3276,-2.3307,-2.3324,-2.3345,-2.3366,-2.3381,-2.339,-2.3405,-2.3435,-2.3456,-2.3484,-2.3492,-2.35,-2.3528,-2.3527,-2.3528,-2.3524,-2.3539,-2.3549,-2.3553,-2.3508,-2.3508,-2.3508,-2.3508,0,0,-2.3246,-2.3288,-2.3293,-2.3308,-2.3339,-2.3357,-2.338,-2.3408,-2.3422,-2.3444,-2.3465,-2.3498,-2.35,-2.3516,-2.3526,-2.3542,-2.3562,-2.3541,-2.3542,-2.3546,-2.3597,-2.3597,-2.3601,-2.3566,-2.3567,-2.3568,-2.3596,0,-2.3264,-2.3306,-2.3322,-2.3357,-2.3379,-2.3392,-2.3413,-2.3435,-2.345,-2.3471,-2.3488,-2.3512,-2.3512,-2.3522,-2.3538,-2.3556,-2.3573,-2.3554,-2.3587,-2.3588,-2.3582,-2.3606,-2.3605,-2.3631,-2.36,-2.36,-2.3601,0,-2.329,-2.3314,-2.3351,-2.3382,-2.3392,-2.341,-2.3439,-2.3459,-2.3485,-2.3495,-2.3514,-2.3525,-2.3551,-2.3546,-2.3584,-2.3571,-2.3586,-2.3597,-2.3598,-2.3603,-2.3596,-2.3613,-2.3639,-2.3643,-2.3607,-2.3606,-2.3606,0,-2.3293,-2.3334,-2.3363,-2.3375,-2.3412,-2.3425,-2.344,-2.3466,-2.3483,-2.3508,-2.3519,-2.3546,-2.3562,-2.3583,-2.3602,-2.3595,-2.3639,-2.3634,-2.3649,-2.3649,-2.3658,-2.3657,-2.3688,-2.3665,-2.3665,-2.3665,-2.3665,0,-2.3312,-2.3334,-2.3365,-2.3382,-2.3409,-2.3428,-2.3454,-2.3471,-2.3494,-2.3516,-2.3529,-2.3549,-2.3572,-2.3596,-2.361,-2.3641,-2.3647,-2.3657,-2.3661,-2.3656,-2.3655,-2.3667,-2.3666,-2.3666,-2.3666,-2.3666,-2.3665,0,-2.3319,-2.334,-2.3372,-2.3405,-2.3414,-2.3432,-2.3461,-2.3479,-2.3496,-2.3524,-2.3531,-2.3558,-2.3587,-2.3607,-2.3644,-2.3654,-2.3688,-2.3691,-2.3679,-2.3681,-2.3696,-2.3695,-2.3736,-2.3744,-2.3714,-2.3715,-2.3715,0,-2.333,-2.3348,-2.3384,-2.34,-2.3416,-2.3441,-2.3459,-2.3479,-2.3498,-2.3531,-2.3545,-2.3576,-2.3601,-2.3647,-2.367,-2.3699,-2.3704,-2.3717,-2.3708,-2.3704,-2.3706,-2.3706,-2.3709,-2.3718,-2.3718,-2.3718,-2.3718,0,-2.3348,-2.3358,-2.3383,-2.3413,-2.3434,-2.3458,-2.3483,-2.3495,-2.3521,-2.3541,-2.3571,-2.3591,-2.3631,-2.3661,-2.3693,-2.371,-2.3719,-2.3721,-2.3726,-2.3723,-2.3716,-2.3722,-2.3684,-2.372,-2.372,-2.372,-2.3719,-2.3719,-2.3358,-2.3376,-2.3405,-2.3433,-2.3454,-2.3478,-2.3498,-2.3518,-2.3544,-2.3578,-2.3589,-2.3621,-2.365,-2.3694,-2.3712,-2.3738,-2.3738,-2.3745,-2.3747,-2.3749,-2.375,-2.3711,-2.3744,-2.3744,-2.3744,-2.3744,-2.3744,0,-2.3378,-2.3398,-2.3424,-2.3459,-2.3482,-2.349,-2.3518,-2.3537,-2.3565,-2.3592,-2.3617,-2.3654,-2.3685,-2.3711,-2.3743,-2.3759,-2.3765,-2.3767,-2.3767,-2.3771,-2.3747,-2.3741,-2.3763,-2.3763,-2.3763,-2.3763,-2.3763,-2.3763,-2.3391,-2.3422,-2.3437,-2.348,-2.35,-2.3532,-2.3548,-2.3571,-2.3592,-2.3633,-2.3659,-2.3676,-2.3704,-2.3739,-2.3768,-2.3775,-2.3787,-2.3789,-2.3797,-2.3775,-2.3772,-2.377,-2.3764,-2.3791,-2.3791,-2.3819,-2.382,-2.382]}]]